Perry, IA

3:14 PM CDT on July 23, 2017 (GMT -0500)
Perry Municipal

Weather History for KPRO - September, 2013

Change the Weather History Date:

Monday, September 23, 2013

  Actual Average Record
Temperature  
Mean Temperature 63 °F -  
Max Temperature 77 °F 70 °F 89 °F (2016)
Min Temperature 49 °F 43 °F 29 °F (1983)
Degree Days  
Heating Degree Days 2    
Growing Degree Days 13 (Base 50)    
Moisture  
Dew Point 47 °F    
Average Humidity 60    
Maximum Humidity 87    
Minimum Humidity 31    
Precipitation  
Precipitation 0.00 in - - ()
Sea Level Pressure  
Sea Level Pressure 29.89 in    
Wind  
Wind Speed 9 mph (SE)    
Max Wind Speed 20 mph    
Max Gust Speed 26 mph    
Visibility 10 miles    
Events      
Averages and records for this station are not official NWS values.
T = Trace of Precipitation, MM = Missing Value Source: NWS Daily Summary

Daily Weather History Graph

Daily Weather History Graph

Search for Another Location

Airport or City:

Trip Planner

Search our weather history database for the weather conditions in past years. The results will help you decide how hot, cold, wet, or windy it might be!

Date:

Astronomy

Sep. 23, 2013 Rise Set
Actual Time 7:05 AM CDT 7:11 PM CDT
Civil Twilight 6:37 AM CDT 7:39 PM CDT
Nautical Twilight 6:05 AM CDT 8:11 PM CDT
Astronomical Twilight 5:31 AM CDT 8:44 PM CDT
Moon 9:40 PM CDT 11:29 AM CDT
Length of Visible Light 13h 01m
Length of Day
12h 06m
Waning Gibbous, 81% of the Moon is Illuminated
Sep 23
Waning Gibbous
Sep 26
Last Quarter
Oct 4
New
Oct 11
First Quarter
Oct 18
Full

Hourly Weather History & Observations

Time (CDT) Temp. Dew Point Humidity Pressure Visibility Wind Dir Wind Speed Gust Speed Precip Events Conditions
12:15 AM 58.1 °F 49.1 °F 72% 29.91 in 10.0 mi SSE 6.9 mph - N/A   Clear
12:35 AM 56.3 °F 48.7 °F 76% 29.91 in 10.0 mi SSE 5.8 mph - N/A   Clear
12:55 AM 56.1 °F 48.4 °F 75% 29.91 in 10.0 mi SSE 5.8 mph - N/A   Clear
1:15 AM 54.0 °F 48.2 °F 81% 29.92 in 10.0 mi SSE 5.8 mph - N/A   Clear
1:35 AM 52.9 °F 47.7 °F 82% 29.92 in 10.0 mi SE 5.8 mph - N/A   Clear
1:55 AM 52.2 °F 47.3 °F 83% 29.92 in 10.0 mi SE 6.9 mph - N/A   Clear
2:15 AM 52.5 °F 47.3 °F 82% 29.92 in 10.0 mi SE 5.8 mph - N/A   Clear
2:35 AM 52.7 °F 47.3 °F 82% 29.92 in 10.0 mi SSE 6.9 mph - N/A   Clear
2:55 AM 52.7 °F 47.3 °F 82% 29.91 in 10.0 mi SSE 6.9 mph - N/A   Clear
3:15 AM 52.9 °F 47.3 °F 81% 29.91 in 10.0 mi SSE 6.9 mph - N/A   Clear
3:35 AM 52.0 °F 46.8 °F 82% 29.91 in 10.0 mi SSE 5.8 mph - N/A   Clear
3:55 AM 50.7 °F 46.4 °F 85% 29.92 in 10.0 mi SE 4.6 mph - N/A   Clear
4:15 AM 50.0 °F 46.2 °F 87% 29.92 in 10.0 mi SE 5.8 mph - N/A   Clear
4:35 AM 49.3 °F 45.5 °F 87% 29.91 in 10.0 mi SE 6.9 mph - N/A   Clear
4:55 AM 49.5 °F 45.9 °F 87% 29.91 in 10.0 mi SE 5.8 mph - N/A   Clear
5:15 AM 50.0 °F 46.4 °F 87% 29.91 in 10.0 mi SE 5.8 mph - N/A   Clear
5:35 AM 50.9 °F 47.1 °F 87% 29.91 in 10.0 mi SE 6.9 mph - N/A   Clear
5:55 AM 51.1 °F 47.1 °F 86% 29.91 in 10.0 mi SE 5.8 mph - N/A   Clear
6:15 AM 51.1 °F 47.3 °F 87% 29.91 in 10.0 mi SE 5.8 mph - N/A   Clear
6:35 AM 51.1 °F 47.3 °F 87% 29.92 in 10.0 mi SSE 6.9 mph - N/A   Clear
6:55 AM 51.8 °F 47.3 °F 85% 29.92 in 10.0 mi SSE 6.9 mph - N/A   Clear
7:15 AM 52.2 °F 47.3 °F 83% 29.92 in 10.0 mi SE 6.9 mph - N/A   Clear
7:35 AM 53.1 °F 47.7 °F 82% 29.92 in 10.0 mi SSE 9.2 mph - N/A   Clear
7:55 AM 54.0 °F 48.2 °F 81% 29.92 in 10.0 mi SSE 8.1 mph - N/A   Clear
8:15 AM 55.0 °F 48.6 °F 79% 29.93 in 10.0 mi SSE 8.1 mph - N/A   Clear
8:35 AM 56.7 °F 48.7 °F 75% 29.93 in 10.0 mi SSE 8.1 mph - N/A   Clear
8:55 AM 58.1 °F 48.7 °F 71% 29.94 in 10.0 mi SSE 9.2 mph - N/A   Clear
9:15 AM 59.4 °F 48.7 °F 68% 29.94 in 10.0 mi SSE 11.5 mph 17.3 mph N/A   Clear
9:35 AM 61.2 °F 48.9 °F 64% 29.94 in 10.0 mi SSE 11.5 mph 17.3 mph N/A   Clear
9:55 AM 63.1 °F 49.1 °F 60% 29.94 in 10.0 mi SSE 12.7 mph 17.3 mph N/A   Clear
10:15 AM 64.9 °F 49.1 °F 56% 29.95 in 10.0 mi South 11.5 mph 18.4 mph N/A   Clear
10:35 AM 66.6 °F 49.5 °F 54% 29.94 in 10.0 mi SSE 12.7 mph - N/A   Clear
10:55 AM 68.4 °F 49.5 °F 51% 29.93 in 10.0 mi SSE 11.5 mph 18.4 mph N/A   Clear
11:15 AM 70.7 °F 48.6 °F 45% 29.92 in 10.0 mi SSE 11.5 mph 19.6 mph N/A   Clear
11:35 AM 71.1 °F 47.7 °F 43% 29.92 in 10.0 mi SSE 16.1 mph 21.9 mph N/A   Clear
11:55 AM 73.0 °F 48.6 °F 42% 29.92 in 10.0 mi South 15.0 mph 24.2 mph N/A   Clear
12:15 PM 72.9 °F 47.3 °F 40% 29.92 in 10.0 mi South 17.3 mph 24.2 mph N/A   Clear
12:35 PM 73.9 °F 47.1 °F 38% 29.91 in 10.0 mi SSE 15.0 mph 25.3 mph N/A   Clear
12:55 PM 74.5 °F 47.7 °F 39% 29.90 in 10.0 mi South 18.4 mph 23.0 mph N/A   Clear
1:15 PM 75.0 °F 47.7 °F 38% 29.89 in 10.0 mi SSE 12.7 mph 21.9 mph N/A   Clear
1:35 PM 75.4 °F 47.3 °F 37% 29.88 in 10.0 mi SSE 13.8 mph 20.7 mph N/A   Clear
1:55 PM 76.1 °F 44.6 °F 33% 29.88 in 10.0 mi SSE 15.0 mph 21.9 mph N/A   Clear
2:15 PM 75.6 °F 44.4 °F 33% 29.87 in 10.0 mi SE 16.1 mph 24.2 mph N/A   Clear
2:35 PM 76.8 °F 45.3 °F 33% 29.86 in 10.0 mi SSE 17.3 mph 20.7 mph N/A   Clear
2:55 PM 76.3 °F 44.4 °F 32% 29.86 in 10.0 mi SSE 15.0 mph 25.3 mph N/A   Clear
3:15 PM 76.6 °F 45.0 °F 32% 29.85 in 10.0 mi SE 18.4 mph 23.0 mph N/A   Clear
3:35 PM 76.3 °F 44.6 °F 32% 29.85 in 10.0 mi SE 16.1 mph 25.3 mph N/A   Clear
3:55 PM 77.2 °F 45.0 °F 32% 29.85 in 10.0 mi SSE 16.1 mph 24.2 mph N/A   Clear
4:15 PM 76.1 °F 44.4 °F 32% 29.84 in 10.0 mi SE 15.0 mph 26.5 mph N/A   Clear
4:35 PM 76.1 °F 43.7 °F 31% 29.83 in 10.0 mi SE 15.0 mph 25.3 mph N/A   Clear
4:55 PM 76.6 °F 44.8 °F 32% 29.83 in 10.0 mi SE 19.6 mph 24.2 mph N/A   Clear
5:15 PM 75.7 °F 44.4 °F 33% 29.83 in 10.0 mi SE 15.0 mph 25.3 mph N/A   Clear
5:35 PM 75.2 °F 44.6 °F 34% 29.83 in 10.0 mi SE 17.3 mph 23.0 mph N/A   Clear
5:55 PM 74.5 °F 45.3 °F 35% 29.83 in 10.0 mi SE 16.1 mph 21.9 mph N/A   Clear
6:15 PM 73.6 °F 44.4 °F 35% 29.82 in 10.0 mi SE 16.1 mph 23.0 mph N/A   Clear
6:35 PM 72.3 °F 45.3 °F 38% 29.83 in 10.0 mi SE 16.1 mph 21.9 mph N/A   Clear
6:55 PM 70.2 °F 46.4 °F 43% 29.83 in 10.0 mi SE 9.2 mph - N/A   Clear
7:15 PM 68.4 °F 46.6 °F 46% 29.84 in 10.0 mi SE 9.2 mph - N/A   Clear
7:35 PM 66.2 °F 46.9 °F 50% 29.84 in 10.0 mi SE 6.9 mph - N/A   Clear
7:55 PM 64.6 °F 47.3 °F 53% 29.85 in 10.0 mi SE 6.9 mph - N/A   Clear
8:15 PM 61.9 °F 47.5 °F 59% 29.85 in 10.0 mi ESE 8.1 mph - N/A   Clear
8:35 PM 63.0 °F 47.5 °F 57% 29.85 in 10.0 mi ESE 8.1 mph - N/A   Clear
8:55 PM 60.3 °F 48.2 °F 64% 29.86 in 10.0 mi ESE 6.9 mph - N/A   Clear
9:15 PM 59.4 °F 48.2 °F 67% 29.86 in 10.0 mi ESE 8.1 mph - N/A   Clear
9:35 PM 59.5 °F 48.0 °F 66% 29.86 in 10.0 mi ESE 8.1 mph - N/A   Clear
9:55 PM 59.7 °F 48.2 °F 66% 29.87 in 10.0 mi ESE 6.9 mph - N/A   Clear
10:15 PM 59.4 °F 48.2 °F 67% 29.88 in 10.0 mi SE 5.8 mph - N/A   Clear
10:35 PM 60.6 °F 48.2 °F 64% 29.88 in 10.0 mi SE 6.9 mph - N/A   Clear
10:55 PM 60.6 °F 48.4 °F 64% 29.88 in 10.0 mi SE 8.1 mph - N/A   Clear
11:15 PM 61.2 °F 48.4 °F 63% 29.88 in 10.0 mi SE 10.4 mph - N/A   Clear
11:35 PM 60.6 °F 48.6 °F 64% 29.88 in 10.0 mi SE 9.2 mph - N/A   Clear
11:55 PM 60.3 °F 48.7 °F 66% 29.87 in 10.0 mi SE 10.4 mph - N/A   Clear